Lexington Weather

Lexington, Massachusetts, USA

40°F
3/30/2020 9:04am 
  • Lexington Conditions: Mist, Overcast
  • Temperature: 39.7°F / 4.3°CWarmer 0.3°F than last hour.
  • Dew Point: 39.0°FIncreased 0.3°Fsince last hour.
  • Relative Humidity: 97
  • Wind: Wind from N N 2 mph, 10-min avg: 3 mph, gust: 6 mph
  • Barometer: 29.97 in Steady
  • Visibility: 2 miles
  • Rain Today: 0.02 in
  •   

Regional Weather Roundup
for Boston / Norton, MA

        
000
ASUS41 KBOX 300205
RWRBOX

REGIONAL WEATHER ROUNDUP
NATIONAL WEATHER SERVICE BOSTON/NORTON MA
1000 PM EDT SUN MAR 29 2020

NOTE:  "FAIR" INDICATES FEW OR NO CLOUDS BELOW 12,000 FEET WITH NO 
SIGNIFICANT WEATHER AND/OR OBSTRUCTIONS TO VISIBILITY.

MAZALL-300300-
EASTERN MASSACHUSETTS
  
CITY           SKY/WX    TMP DP  RH WIND       PRES   REMARKS
BOSTON         HAIL      40  38  93 NE21G26   29.97F FOG     WCI  30  
BEVERLY        LGT RAIN  40  37  89 NE8G21    30.02R FOG              
LAWRENCE       LGT RAIN  39  37  92 NE10G23   30.01F FOG              
BEDFORD        LGT RAIN  40  38  93 NE14      29.96F FOG              
BLUE HILL        N/A     38  38 100 NE17G23   29.92S WCI  28          
NORWOOD        TSTM      42  39  89 NE10      29.96S FOG              
MARSHFIELD     TSTM      43  43 100 VRB5      29.97R                  
PLYMOUTH       LGT RAIN  43  42  97 N7          N/A  FOG              
TAUNTON        LGT RAIN  42  40  92 VRB5      29.93R FOG              
NEW BEDFORD    CLOUDY    42  42 100 NE6       29.90F FOG              
$$

MAZALL-300300-
CAPE COD AND THE ISLANDS
  
CITY           SKY/WX    TMP DP  RH WIND       PRES   REMARKS
FALMOUTH       LGT RAIN  43  43 100 E14G20    29.86F                  
HYANNIS        CLOUDY    46  42  86 SE12G23   29.84F FOG              
CHATHAM        CLOUDY    44  41  89 SE14G24   29.89F FOG              
PROVINCETOWN   TSTM      43  42  97 SE16G25   29.88F FOG              
NANTUCKET      CLOUDY    45  44  97 E20G30    29.86F FOG              
MARTHAS VNYRD  LGT RAIN  45  44  97 E12G25    29.85F FOG              
$$
 
MAZALL-300300-
CENTRAL AND WESTERN MASSACHUSETTS
  
CITY           SKY/WX    TMP DP  RH WIND       PRES   REMARKS
WORCESTER      FOG       37  35  92 NE10G20   29.93F VSB 3/4 WCI  30  
FITCHBURG      CLOUDY    38  35  89 NE6       29.99F                  
ORANGE         TSTM      38  36  92 NE9       30.00R FOG     WCI  31  
SPRINGFIELD    DRIZZLE   40  39  98 N8        29.99R FOG              
WESTFIELD      CLOUDY    40  38  93 NE9       29.97R FOG              
NORTH ADAMS    CLOUDY    40  34  79 E22       29.95S WCI  30          
PITTSFIELD     CLOUDY    39  35  86 NE12      29.92R WCI  32          
$$
 
RIZALL-300300-
RHODE ISLAND
  
CITY           SKY/WX    TMP DP  RH WIND       PRES   REMARKS
PROVIDENCE     TSTM      42  41  96 N14       29.93R FOG              
NEWPORT        CLOUDY    44  42  93 NE8       29.88F THUNDER FOG      
BLOCK ISLAND   LGT RAIN  42  42 100 NE12G21   29.86F FOG              
SMITHFIELD     LGT RAIN  39  39 100 NE13      29.93F FOG     WCI  31  
WESTERLY       CLOUDY    47  42  83 N8        29.89R HAZE             
$$
 
CTZALL-300300-
CONNECTICUT
  
CITY           SKY/WX    TMP DP  RH WIND       PRES   REMARKS
BRADLEY INTL   TSTM      40  39  97 N13       29.97R FOG              
HARTFORD       CLOUDY    44  41  89 N9        29.97R FOG              
BRIDGEPORT     CLOUDY    47  45  93 N12       29.91R FOG              
DANBURY        CLOUDY    45  43  93 NE7       29.90R FOG              
GROTON         CLOUDY    44  44 100 NE12      29.88S FOG              
NEW HAVEN      CLOUDY    47  45  93 N10       29.91R FOG              
CHESTER        CLOUDY    45  45 100 NE9       29.88F FOG              
MERIDEN        CLOUDY    44  42  93 N8        29.94R FOG              
WILLIMANTIC    CLOUDY    41  40  96 NE8       29.90F FOG              
OXFORD         LGT RAIN  43  43 100 NE8G16    29.91R FOG              
$$

MEZ002-015-021-024-NHZ003-005-008-011-012-014-VTZ005-008-300300-
NORTHERN NEW ENGLAND
  
CITY           SKY/WX    TMP DP  RH WIND       PRES   REMARKS
PORTLAND ME    RAIN      37  32  82 NE8       30.13R WCI  31          
BANGOR ME      FLURRIES  34  32  92 N5        30.21R WCI  30          
CONCORD NH     RAIN      37  34  89 NE7       30.04S FOG     WCI  32  
MANCHESTER NH  LGT RAIN  39  35  86 NE8       30.00S                  
NASHUA NH      LGT RAIN  38  38 100 E7        30.02S                  
PORTSMOUTH NH  LGT RAIN  38  37  94 NE14G21   30.01  WCI  30          
JAFFREY NH     HVY RAIN  36  35  96 VRB3      30.00R FOG              
KEENE NH       LGT RAIN  37  34  87 NE8       30.01R WCI  31          
BURLINGTON VT  MOCLDY    41  35  79 SE12      29.91F                  
MT. WASHINGTON NOT AVBL                                               
$$

NYZ052-076-300300-
EASTERN NEW YORK
  
CITY           SKY/WX    TMP DP  RH WIND       PRES   REMARKS
ALBANY         CLOUDY    47  39  74 S10       29.92R                  
NEW YORK CITY  CLOUDY    46  43  89 NE17      29.89R FOG              
$$
 
ANZALL-300300-
MARINE OBSERVATIONS
  
STATION/POSITION TIME  TEMP    WIND        PRES    VSBY  WAVE
                       AIR SEA DIR/SP/G                  HT/PER
                 (UTC) (F)     (DEG/KT/KT) (MB)    (MI)  (FT/S)
BOSTON BUOY      0150   41 43   50/ 14/ 17 1015.4R         6/ 6
BUZZARDS BAY     0100           80/ 15/ 18 1013.0F
NANTUCKET SOUND  0140                        N/A           4/ 5
MASS BAY-STELLWA 0104   40 42  110/ 17/ 25 1013.5F   3/4   7/ 6
ISLE OF SHOALS   0100   42      80/ 20/ 21 1016.1F
S OF BLOCK IS    0130      44                N/A           9/10
$$

......................KEY.........................
  SKY/WX - SKY CONDITION/PRESENT WEATHER
  TMP    - TEMPERATURE IN FAHRENHEIT
  DWPT   - DEWPOINT IN FAHRENHEIT
  RH     - RELATIVE HUMIDITY IN PERCENT
  WIND   - DIRECTION AND SPEED IN MPH
  PRES   - MEAN SEA LEVEL PRESSURE IN INCHES OF HG
  WCI    - WIND CHILL INDEX
  VSB    - VISIBILITY IN MILES
  HX     - HEAT INDEX
  TC     - TEMPERATURE IN CELSIUS
  VRB    - VARIABLE WIND DIRECTION
  N/A    - NOT AVAILABLE
  
      

Other recent Regional Weather Roundups

Mon Mar 30, 8:04am

Mon Mar 30, 7:04am

Mon Mar 30, 6:04am

Mon Mar 30, 5:04am

Mon Mar 30, 4:04am

Mon Mar 30, 3:05am

Mon Mar 30, 2:04am

Mon Mar 30, 1:04am

Mon Mar 30, 12:04am

Sun Mar 29, 11:04pm

Sun Mar 29, 9:04pm

Sun Mar 29, 8:04pm

Sun Mar 29, 7:04pm

Sun Mar 29, 6:04pm

Sun Mar 29, 5:05pm

Sun Mar 29, 4:04pm

Sun Mar 29, 3:04pm

Sun Mar 29, 2:04pm

Sun Mar 29, 1:05pm

Sun Mar 29, 12:04pm

Sun Mar 29, 11:04am

Sun Mar 29, 10:04am

Sun Mar 29, 9:04am

Sun Mar 29, 8:04am

Sun Mar 29, 7:04am

Sun Mar 29, 6:04am

Sun Mar 29, 5:04am

Sun Mar 29, 4:04am

Sun Mar 29, 3:04am

Sun Mar 29, 2:04am

Sun Mar 29, 1:04am

Sun Mar 29, 12:04am

Sat Mar 28, 11:05pm

Sat Mar 28, 10:04pm

Sat Mar 28, 9:04pm

Sat Mar 28, 8:04pm

Sat Mar 28, 7:04pm

Sat Mar 28, 6:04pm

Sat Mar 28, 5:05pm

Sat Mar 28, 4:04pm

Sat Mar 28, 3:04pm

Sat Mar 28, 2:04pm

Sat Mar 28, 1:05pm

Sat Mar 28, 12:04pm

Sat Mar 28, 11:04am

Sat Mar 28, 10:04am

Sat Mar 28, 9:04am

Sat Mar 28, 8:04am

Sat Mar 28, 7:04am

Sat Mar 28, 6:04am

Sat Mar 28, 5:04am

Sat Mar 28, 4:04am

Sat Mar 28, 3:04am

Sat Mar 28, 2:04am

Sat Mar 28, 1:04am

Sat Mar 28, 12:04am

Fri Mar 27, 11:04pm

Fri Mar 27, 10:04pm

Fri Mar 27, 9:04pm

Fri Mar 27, 8:04pm

Fri Mar 27, 7:05pm

Fri Mar 27, 6:04pm

Fri Mar 27, 5:05pm

Fri Mar 27, 4:05pm

Fri Mar 27, 3:04pm

Fri Mar 27, 2:05pm

Fri Mar 27, 1:04pm

Fri Mar 27, 12:04pm

Fri Mar 27, 11:04am

Fri Mar 27, 10:04am

Fri Mar 27, 9:04am

Meta data:

ID: 0f38d74a-c5af-4660-b561-2111015c7617
Link: https://api.weather.gov/products/0f38d74a-c5af-4660-b561-2111015c7617